This is the latest recevied weather packets stored in our database for station/object WP3OF-2. If no packets are shown the sender has not sent any weather packets the latest 10 day(s).
| Time | Temp. | Humidity | Pressure | Rain* | Wind** | Luminosity | Snow |
|---|---|---|---|---|---|---|---|
| 1788525463 | 22.22° C | 96% | 1026.3 hPa | 0 mm | - | 58 W/m² | - |
| 1788525158 | 22.22° C | 96% | 1026.3 hPa | 0 mm | - | 53 W/m² | - |
| 1788524853 | 21.67° C | 96% | 1026.3 hPa | 0 mm | - | 291 W/m² | - |
| 1788524547 | 21.67° C | 95% | 1026.3 hPa | 0 mm | - | 303 W/m² | - |
| 1788524243 | 21.67° C | 96% | 1026.3 hPa | 0 mm | - | 280 W/m² | - |
| 1788523939 | 21.67° C | 97% | 1026.3 hPa | 0 mm | - | 273 W/m² | - |
| 1788523635 | 21.11° C | 98% | 1026.3 hPa | 0 mm | - | 246 W/m² | - |
| 1788523331 | 21.11° C | 97% | 1026 hPa | 0 mm | - | 225 W/m² | - |
| 1788523027 | 21.67° C | 97% | 1026 hPa | 0 mm | - | 47 W/m² | - |
| 1788522727 | 21.11° C | 97% | 1026 hPa | 0 mm | - | 45 W/m² | - |
| 1788522427 | 21.11° C | 97% | 1026 hPa | 0 mm | - | 45 W/m² | - |
| 1788522141 | 21.11° C | 98% | 1026 hPa | 0 mm | - | 145 W/m² | - |
| 1788521816 | 21.11° C | 96% | 1025.6 hPa | 0 mm | - | 132 W/m² | - |
| 1788521515 | 21.11° C | 95% | 1026 hPa | 0 mm | - | 91 W/m² | - |
| 1788521211 | 21.11° C | 95% | 1025.6 hPa | 0 mm | - | 42 W/m² | - |
| 1788520906 | 20.56° C | 95% | 1025.6 hPa | 0 mm | - | 46 W/m² | - |
| 1788520602 | 20.56° C | 95% | 1025.6 hPa | 0 mm | - | 45 W/m² | - |
| 1788520297 | 20.56° C | 94% | 1025.6 hPa | 0 mm | - | 40 W/m² | - |
| 1788519992 | 20.56° C | 95% | 1025.2 hPa | 0 mm | - | 35 W/m² | - |
| 1788519687 | 20.56° C | 94% | 1025.6 hPa | 0 mm | - | 32 W/m² | - |
| 1788519407 | 20.56° C | 94% | 1025.6 hPa | 0 mm | - | 30 W/m² | - |
| 1788519082 | 20.56° C | 95% | 1025.2 hPa | 0 mm | - | 29 W/m² | - |
| 1788518777 | 20.56° C | 94% | 1025.2 hPa | 0 mm | - | 24 W/m² | - |
| 1788518473 | 20.56° C | 93% | 1025.2 hPa | 0 mm | - | 19 W/m² | - |
| 1788518169 | 20° C | 94% | 1024.9 hPa | 0 mm | - | 15 W/m² | - |
* Rain latest hour (hover to see other rain measurements)
** Current wind speed in m/s (hover to see current wind gust speed)